Weather History for LGKZ - October, 2012

Change the Weather History Date:

Thursday, October 25, 2012

  Actual Average Record
Temperature  
Mean Temperature 56 °F -  
Max Temperature 68 °F - - ()
Min Temperature 44 °F - - ()
Degree Days  
Heating Degree Days 9    
Growing Degree Days 6 (Base 50)    
Moisture  
Dew Point 43 °F    
Average Humidity 71    
Maximum Humidity 93    
Minimum Humidity 37    
Precipitation  
Precipitation 0.00 in - - ()
Sea Level Pressure  
Sea Level Pressure 29.99 in    
Wind  
Wind Speed 3 mph ()    
Max Wind Speed 6 mph    
Max Gust Speed -    
Visibility 6.2 miles    
Events      
T = Trace of Precipitation, MM = Missing Value Source: Averaged Metar Reports

Daily Weather History Graph

Daily Weather History Graph

Search for Another Location

Airport or City:

Trip Planner

Search our weather history database for the weather conditions in past years. The results will help you decide how hot, cold, wet, or windy it might be!

Date:

Astronomy

Oct. 25, 2012 Rise Set
Actual Time 7:54 AM EEST 6:38 PM EEST
Civil Twilight 7:26 AM EEST 7:06 PM EEST
Nautical Twilight 6:54 AM EEST 7:37 PM EEST
Astronomical Twilight 6:23 AM EEST 8:09 PM EEST
Moon 4:15 PM EEST (10/25) 3:31 AM EEST (10/25)
Length of Visible Light 11h 39m
Length of Day
10h 43m
Waxing Gibbous, 82% of the Moon is Illuminated
Oct 25
Waxing Gibbous
Oct 29
Full
Nov 7
Last Quarter
Nov 14
New
Nov 20
First Quarter

Hourly Weather History & Observations

Time (EEST) Temp. Windchill Dew Point Humidity Pressure Visibility Wind Dir Wind Speed Gust Speed Precip Events Conditions
12:20 AM 50.0 °F - 44.6 °F 82% 30.06 in - North 5.8 mph - N/A   Unknown
12:50 AM 48.2 °F - 44.6 °F 87% 30.06 in - North 5.8 mph - N/A   Unknown
1:20 AM 48.2 °F - 44.6 °F 87% 30.06 in - Variable 3.5 mph - N/A   Unknown
1:50 AM 48.2 °F - 44.6 °F 87% 30.06 in - Variable 3.5 mph - N/A   Unknown
2:20 AM 48.2 °F - 44.6 °F 87% 30.06 in - North 4.6 mph - N/A   Unknown
2:50 AM 48.2 °F - 44.6 °F 87% 30.06 in - Variable 3.5 mph - N/A   Unknown
3:20 AM 48.2 °F - 44.6 °F 87% 30.06 in - Variable 3.5 mph - N/A   Unknown
3:50 AM 46.4 °F 45.2 °F 44.6 °F 93% 30.04 in - Variable 3.5 mph - N/A   Unknown
4:20 AM 46.4 °F 45.2 °F 42.8 °F 87% 30.04 in - Variable 3.5 mph - N/A   Unknown
4:50 AM 46.4 °F 43.5 °F 44.6 °F 93% 30.04 in - North 5.8 mph - N/A   Unknown
5:20 AM 46.4 °F 45.2 °F 44.6 °F 93% 30.04 in - Variable 3.5 mph - N/A   Unknown
5:50 AM 46.4 °F - 44.6 °F 93% 30.04 in - Variable 2.3 mph - N/A   Unknown
6:20 AM 44.6 °F 43.1 °F 42.8 °F 93% 30.04 in - Variable 3.5 mph - N/A   Unknown
6:50 AM 46.4 °F 45.2 °F 42.8 °F 87% 30.04 in - Variable 3.5 mph - N/A   Unknown
7:20 AM 44.6 °F 43.1 °F 42.8 °F 93% 30.04 in - Variable 3.5 mph - N/A   Unknown
7:50 AM 44.6 °F 41.4 °F 42.8 °F 93% 30.04 in - North 5.8 mph - N/A   Unknown
8:20 AM 44.6 °F 42.2 °F 42.8 °F 93% 30.04 in - North 4.6 mph - N/A   Unknown
8:50 AM 48.2 °F - 44.6 °F 87% 30.04 in - Calm Calm - N/A   Clear
9:50 AM 51.8 °F - 48.2 °F 88% 30.04 in - Calm Calm - N/A   Clear
10:50 AM 55.4 °F - 50.0 °F 82% 30.04 in - Calm Calm - N/A   Clear
11:50 AM 59.0 °F - 50.0 °F 72% 30.01 in - Calm Calm - N/A   Clear
12:50 PM 62.6 °F - 48.2 °F 59% 30.01 in - Calm Calm - N/A   Clear
1:50 PM 64.4 °F - 46.4 °F 52% 29.98 in - SSE 4.6 mph - N/A   Clear
2:50 PM 66.2 °F - 41.0 °F 40% 29.95 in 6.2 mi ESE 4.6 mph - N/A   Partly Cloudy
3:20 PM 66.2 °F - 42.8 °F 43% 29.95 in - SSE 4.6 mph - N/A   Unknown
3:50 PM 66.2 °F - 41.0 °F 40% 29.95 in - ESE 4.6 mph - N/A   Unknown
4:20 PM 68.0 °F - 42.8 °F 40% 29.92 in - Variable 3.5 mph - N/A   Unknown
4:50 PM 68.0 °F - 41.0 °F 37% 29.92 in - Variable 3.5 mph - N/A   Unknown
5:20 PM 66.2 °F - 41.0 °F 40% 29.92 in - Variable 3.5 mph - N/A   Unknown
5:50 PM 66.2 °F - 41.0 °F 40% 29.92 in - Variable 3.5 mph - N/A   Unknown
6:20 PM 62.6 °F - 41.0 °F 45% 29.92 in - Variable 2.3 mph - N/A   Unknown
6:50 PM 59.0 °F - 41.0 °F 51% 29.92 in - Variable 2.3 mph - N/A   Unknown
7:20 PM 57.2 °F - 41.0 °F 55% 29.92 in - Variable 3.5 mph - N/A   Unknown
7:50 PM 55.4 °F - 41.0 °F 58% 29.92 in - Variable 2.3 mph - N/A   Unknown
8:20 PM 55.4 °F - 41.0 °F 58% 29.95 in - Variable 2.3 mph - N/A   Unknown
8:50 PM 51.8 °F - 41.0 °F 67% 29.95 in - Variable 1.2 mph - N/A   Unknown
9:20 PM 51.8 °F - 39.2 °F 62% 29.95 in - NNW 5.8 mph - N/A   Unknown
9:50 PM 51.8 °F - 39.2 °F 62% 29.95 in - NNE 4.6 mph - N/A   Unknown
10:20 PM 51.8 °F - 41.0 °F 67% 29.95 in - NE 4.6 mph - N/A   Unknown
10:50 PM 51.8 °F - 42.8 °F 71% 29.95 in - Variable 3.5 mph - N/A   Unknown
11:20 PM 51.8 °F - 42.8 °F 71% 29.95 in - Variable 3.5 mph - N/A   Unknown
11:50 PM 51.8 °F - 42.8 °F 71% 29.95 in - Variable 3.5 mph - N/A   Unknown